Content
SEND FEEDBACK

Daily
Averages
Monthly
Summary
United States of America

GLADY, WEST VIRGINIA


Home > North America > United States > West Virginia
Elevation: 87 meters     Latitude: 38 48N     Longitude: 079 43W

WEATHER
 
SELECT A DAY
Number of Records: 249,714;   Date Range: 1/1/95 - 8/12/14
 
SHARE

PRINT THIS DATA

[ ← Previous Day ]
WEATHER ALMANAC - 31 JANUARY, 2013
[ Next Day → ]
[ °F ]   °C
Weather ElementAverageHighLow
Temperature-2.6 °C7 °C (12:23 am)-6 °C (7:59 pm)
Dewpoint-6.7 °C4 °C (12:23 am)-10.6 °C (4:51 pm)
Humidity73.7 %85 % (2:51 am)62 % (4:51 pm)
Barometer1005.8 hPa1013.9 hPa (6:51 pm)993.2 hPa (12:23 am)
Wind Speed24 km/h42.6 km/h (1:40 am)
Wind Gust76 km/h (3:07 am)
Weather ElementAverage
Visibility5.5 km
Wind DirectionWSW (264 °)

Weather ElementTotal
Precipitation9.4 mm
Heating Degree Days17.8 (Base 18.3)
Averaged from 83 records on 31 January, 2013
WEATHER CONDITIONS BREAKOUT
WIND DIRECTION BREAKOUT
WEATHER BY HOUR - 31 JANUARY, 2013
[ °F ]   °C
Local TimeTemperatureDewpointHumidityBarometerVisibilityWind DirectionWind SpeedGust SpeedPrecipitationEventsConditions
12:23 AM7 °C4 °C81 %993.2 hPa12.9 kmWest (270°)33.3 km/h50.1 km/h1.02 mmRainLight Rain
12:51 AM6.7 °C3.3 °C79 %993.2 hPa9.7 kmWSW (250°)38.9 km/h55.5 km/h2.03 mmRainRain
1:40 AM4 °C1 °C81 %994.6 hPa4.8 kmWest (280°)42.6 km/h72.3 km/h0.76 mmRainRain
1:51 AM3.3 °C0.6 °C83 %996.3 hPa9.7 kmWest (280°)33.3 km/h70.3 km/h1.27 mmRainLight Rain
2:45 AM2 °C-1 °C81 %997 hPa4 kmWest (280°)27.8 km/h42.6 km/h1.02 mmSnowLight Snow
2:51 AM1.7 °C-0.6 °C85 %998 hPa4.8 kmWNW (290°)25.9 km/h38.9 km/h1.27 mmSnowLight Snow
3:07 AM2 °C-2 °C75 %997.3 hPa2.9 kmWest (270°)35.2 km/h76 km/h0 mmSnowLight Snow
3:15 AM2 °C-2 °C75 %997.6 hPa2.9 kmWest (270°)35.2 km/h66.6 km/h0 mmSnowLight Snow
3:22 AM2 °C-2 °C75 %997.6 hPa4.8 kmWest (270°)37 km/h55.5 km/h0 mmSnowLight Snow
3:51 AM1.1 °C-1.7 °C82 %998.6 hPa6.4 kmWest (280°)14.8 km/h35.2 km/h0.25 mmSnowLight Snow
3:57 AM1 °C-2 °C81 %998.3 hPa2.9 kmWest (280°)24.1 km/h42.6 km/h0.25 mmSnowLight Snow
4:19 AM0 °C-4 °C75 %998.6 hPa3.2 kmWest (270°)35.2 km/h68.6 km/h0.25 mmSnowLight Snow
4:29 AM0 °C-4 °C75 %999 hPa6.4 kmWest (260°)37 km/h51.8 km/h0.25 mmSnowLight Snow
4:51 AM0 °C-4.4 °C73 %1000.7 hPa16.1 kmWest (260°)31.5 km/h53.8 km/h0.25 mmOvercast
5:01 AM0 °C-4 °C75 %1000 hPa16.1 kmWest (270°)35.2 km/h61.2 km/h0 mmOvercast
5:45 AM-1 °C-5 °C75 %1001 hPa3.2 kmWest (260°)20.4 km/h53.8 km/h0 mmSnowLight Snow
5:51 AM-1.7 °C-5 °C78 %1002.7 hPa1.6 kmWest (260°)31.5 km/h48.1 km/h0 mmSnowLight Snow
5:57 AM-2 °C-5 °C80 %1001.4 hPa1.3 kmWest (280°)24.1 km/h48.1 km/h0 mmSnowLight Snow
6:03 AM-2 °C-5 °C80 %1001.4 hPa1.9 kmWest (260°)29.6 km/h48.1 km/h0 mmSnowLight Snow
6:08 AM-2 °C-6 °C74 %1001.7 hPa4.8 kmWest (270°)31.5 km/h48.1 km/h0 mmSnowLight Snow
6:39 AM-2 °C-7 °C69 %1002.4 hPa16.1 kmWest (270°)20.4 km/h40.7 km/h0 mmOvercast
6:51 AM-1.7 °C-7.2 °C67 %1004.1 hPa16.1 kmWest (280°)16.7 km/h44.4 km/h0 mmOvercast
7:29 AM-2 °C-7 °C69 %1003 hPa12.9 kmWSW (250°)33.3 km/h53.8 km/hSnowLight Snow
7:51 AM-2.2 °C-6.1 °C75 %1004.4 hPa6.4 kmWest (270°)22.2 km/h38.9 km/h0 mmSnowLight Snow
7:54 AM-2 °C-6 °C74 %1003 hPa1.9 kmWest (260°)31.5 km/h46.3 km/h0 mmSnowLight Snow
8:02 AM-3 °C-6 °C80 %1003.4 hPa0.8 kmWest (260°)35.2 km/h46.3 km/h0 mmSnowSnow
8:08 AM-2 °C-7 °C69 %1003.7 hPa3.2 kmWest (270°)38.9 km/h50.1 km/h0 mmSnowLight Snow
8:16 AM-2 °C-8 °C64 %1003.7 hPa16.1 kmWest (260°)29.6 km/h51.8 km/h0 mmOvercast
8:27 AM-2 °C-8 °C64 %1003.7 hPa16.1 kmWest (260°)31.5 km/h51.8 km/h0 mmOvercast
8:44 AM-3 °C-7 °C74 %1004.1 hPa2.9 kmWNW (290°)31.5 km/h50.1 km/h0 mmSnowLight Snow
8:47 AM-3 °C-7 °C74 %1004.4 hPa1.3 kmWNW (290°)27.8 km/h50.1 km/h0 mmSnowLight Snow
8:51 AM-3.3 °C-6.7 °C78 %1005.8 hPa0.8 kmWNW (290°)27.8 km/h50.1 km/h0 mmSnowSnow
9:03 AM-3 °C-7 °C74 %1004.7 hPa2.9 kmWNW (290°)18.5 km/h46.3 km/h0 mmSnowLight Snow
9:43 AM-3 °C-7 °C74 %1005.1 hPa1.3 kmWest (270°)14.8 km/h37 km/h0 mmSnowLight Snow
9:51 AM-3.3 °C-6.7 °C78 %1007.1 hPa0.8 kmWSW (250°)20.4 km/h27.8 km/h0 mmSnowSnow
10:36 AM-4 °C-7 °C80 %1006.4 hPa0.8 kmWest (270°)20.4 km/h35.2 km/h0.25 mmSnowSnow
10:51 AM-3.9 °C-6.7 °C81 %1008.8 hPa0.3 kmWest (270°)18.5 km/h46.3 km/h0.51 mmSnowHeavy Snow
11:03 AM-4 °C-8 °C74 %1007.1 hPa1.3 kmWest (270°)27.8 km/h64.9 km/h0 mmSnowLight Snow
11:05 AM-4 °C-8 °C74 %1007.1 hPa1.9 kmWest (260°)29.6 km/h55.5 km/h0 mmSnowLight Snow
11:08 AM-4 °C-9 °C69 %1007.1 hPa4.8 kmWest (270°)27.8 km/h48.1 km/h0 mmSnowLight Snow
11:20 AM-4 °C-8 °C74 %1007.1 hPa4 kmWNW (290°)18.5 km/h38.9 km/h0 mmSnowLight Snow
11:27 AM-4 °C-8 °C74 %1007.5 hPa6.4 kmWest (270°)24.1 km/h48.1 km/h0 mmSnowLight Snow
11:44 AM-4 °C-8 °C74 %1007.1 hPa4 kmWest (260°)14.8 km/h35.2 km/h0 mmSnowLight Snow
11:51 AM-3.9 °C-8.3 °C72 %1009.1 hPa1.9 kmWest (260°)24.1 km/h33.3 km/h0 mmSnowLight Snow
11:56 AM-4 °C-8 °C74 %1007.5 hPa0.8 kmWest (260°)16.7 km/h29.6 km/h0 mmSnowSnow
12:09 PM-4 °C-8 °C74 %1007.1 hPa1.6 kmWest (260°)22.2 km/h46.3 km/h0 mmSnowLight Snow
12:32 PM-3 °C-9 °C64 %1007.1 hPa4.8 kmWest (260°)31.5 km/h53.8 km/h0 mmOvercast
12:51 PM-3.3 °C-9.4 °C63 %1009.1 hPa3.2 kmWest (270°)27.8 km/h46.3 km/h0 mmSnowLight Snow
1:02 PM-4 °C-9 °C69 %1007.1 hPa1.9 kmWest (260°)24.1 km/h48.1 km/h0 mmSnowLight Snow
1:11 PM-4 °C-8 °C74 %1007.1 hPa1.6 kmWest (270°)13 km/h46.3 km/h0 mmSnowLight Snow
1:47 PM-4 °C-8 °C74 %1007.1 hPa4.8 kmWest (260°)16.7 km/h37 km/h0 mmSnowLight Snow
1:48 PM-3.9 °C-8.3 °C72 %1009.5 hPa4.8 kmWest (260°)22.2 km/h37 km/h0 mmSnowLight Snow
1:59 PM-3 °C-9 °C64 %1007.1 hPa6.4 kmWest (270°)16.7 km/h35.2 km/h0 mmSnowLight Snow
2:35 PM-3 °C-9 °C64 %1007.5 hPa2.4 kmWest (260°)31.5 km/h53.8 km/h0 mmSnowLight Snow
2:38 PM-3 °C-9 °C64 %1007.5 hPa1.3 kmWSW (250°)33.3 km/h53.8 km/hSnowLight Snow
2:49 PM-4 °C-7 °C80 %1008.1 hPa0.3 kmWNW (290°)37 km/h55.5 km/h0 mmSnowHeavy Snow
2:50 PM-4.4 °C-7.2 °C81 %1010.5 hPa0.3 kmWNW (290°)31.5 km/h55.5 km/h0 mmSnowHeavy Snow
3:02 PM-4 °C-8 °C74 %1008.5 hPa1.3 kmWest (280°)38.9 km/h59.2 km/h0 mmSnowLight Snow
3:11 PM-4 °C-9 °C69 %1008.5 hPa3.2 kmWest (260°)25.9 km/h50.1 km/h0 mmSnowLight Snow
3:14 PM-4 °C-9 °C69 %1008.5 hPa4.8 kmWSW (250°)35.2 km/h50.1 km/h0 mmSnowLight Snow
3:51 PM-3.9 °C-10 °C63 %1011.9 hPa4 kmWNW (300°)29.6 km/h57.5 km/h0 mmSnowLight Snow
4:07 PM-4 °C-10 °C64 %1009.5 hPa9.7 kmWNW (290°)20.4 km/h44.4 km/h0 mmSnowLight Snow
4:51 PM-4.4 °C-10.6 °C62 %1012.5 hPa14.5 kmWest (260°)13 km/h33.3 km/h0 mmSnowLight Snow
5:51 PM-4.4 °C-10.6 °C62 %1012.9 hPa14.5 kmWSW (250°)13 km/h29.6 km/h0 mmSnowLight Snow
6:04 PM-5 °C-9 °C74 %1010.2 hPa4 kmWest (280°)13 km/h0 mmSnowLight Snow
6:24 PM-5 °C-9 °C74 %1010.5 hPa2.4 kmWest (270°)14.8 km/h0 mmSnowLight Snow
6:32 PM-5 °C-9 °C74 %1010.5 hPa4.8 kmSW (220°)20.4 km/h25.9 km/h0 mmSnowLight Snow
6:51 PM-5 °C-9.4 °C72 %1013.9 hPa14.5 kmWSW (250°)16.7 km/h0 mmMostly Cloudy
7:01 PM-5 °C-9 °C74 %1010.8 hPa16.1 kmWest (260°)11.1 km/hMostly Cloudy
7:38 PM-5 °C-9 °C74 %1010.5 hPa4 kmWest (270°)16.7 km/h0 mmSnowLight Snow
7:47 PM-5 °C-9 °C74 %1010.5 hPa1.9 kmWest (260°)14.8 km/h0 mmSnowLight Snow
7:51 PM-5 °C-8.3 °C78 %1013.5 hPa1.9 kmWSW (250°)9.3 km/h0 mmSnowLight Snow
7:59 PM-6 °C-9 °C80 %1010.8 hPa4.8 kmWest (260°)9.3 km/h0 mmSnowLight Snow
8:15 PM-4 °C-9 °C69 %1010.8 hPa16.1 kmWest (270°)11.1 km/h27.8 km/h0 mmOvercast
8:51 PM-5 °C-9.4 °C72 %1013.5 hPa14.5 kmWSW (240°)22.2 km/h33.3 km/h0 mmMostly Cloudy
9:51 PM-4.4 °C-8.9 °C71 %1013.5 hPa4.8 kmWSW (240°)14.8 km/h31.5 km/h0 mmSnowLight Snow
9:56 PM-4 °C-8 °C74 %1010.5 hPa4 kmWest (270°)16.7 km/h31.5 km/h0 mmSnowLight Snow
10:15 PM-4 °C-8 °C74 %1010.5 hPa2.9 kmSSW (210°)9.3 km/h0 mmSnowLight Snow
10:39 PM-4 °C-7 °C80 %1010.5 hPa3.2 kmSSW (210°)9.3 km/h0 mmSnowLight Snow
10:51 PM-4.4 °C-7.8 °C77 %1013.2 hPa3.2 kmSSW (200°)11.1 km/h0 mmSnowLight Snow
11:11 PM-4 °C-8 °C74 %1009.8 hPa6.4 kmSW (220°)11.1 km/h0 mmSnowLight Snow
11:28 PM-4 °C-8 °C74 %1009.5 hPa4 kmSW (220°)7.4 km/h33.3 km/h0 mmSnowLight Snow
11:51 PM-3.9 °C-7.2 °C78 %1011.9 hPa2.4 kmWest (270°)16.7 km/h31.5 km/h0 mmSnowLight Snow
Hourly data recorded from KEKN, located 0 kilometers away from Glady, West Virginia







STORIES FROM OUR PARTNERS